Roswell, NM

10:00 PM MST on December 10, 2017 (GMT -0700)
Roswell Industrial

Weather History for KROW - February, 2014

Change the Weather History Date:

Thursday, February 20, 2014

  Actual Average Record
Temperature  
Mean Temperature 47 °F 47 °F  
Max Temperature 63 °F 62 °F 83 °F (1996)
Min Temperature 31 °F 32 °F 11 °F (1955)
Degree Days  
Heating Degree Days 18 18  
Month to date heating degree days 391 404  
Since 1 July heating degree days 2588 2570  
Cooling Degree Days 0 0  
Month to date cooling degree days 0 0  
Year to date cooling degree days 0 0  
Moisture  
Dew Point 2 °F    
Average Humidity 20    
Maximum Humidity 34    
Minimum Humidity 5    
Precipitation  
Precipitation 0.00 in 0.01 in 0.91 in (1987)
Month to date precipitation 0.02 0.29  
Year to date precipitation 0.02 0.67  
Sea Level Pressure  
Sea Level Pressure 29.86 in    
Wind  
Wind Speed 15 mph (NW)    
Max Wind Speed 35 mph    
Max Gust Speed 43 mph    
Visibility 10 miles    
Events      
T = Trace of Precipitation, MM = Missing Value Source: NWS Daily Summary

Daily Weather History Graph

Daily Weather History Graph

Search for Another Location

Airport or City:

Trip Planner

Search our weather history database for the weather conditions in past years. The results will help you decide how hot, cold, wet, or windy it might be!

Date:

Astronomy

Feb. 20, 2014 Rise Set
Actual Time 6:36 AM MST 5:47 PM MST
Civil Twilight 6:11 AM MST 6:12 PM MST
Nautical Twilight 5:42 AM MST 6:41 PM MST
Astronomical Twilight 5:13 AM MST 7:10 PM MST
Moon 11:24 PM MST (2/20) 9:39 AM MST (2/20)
Length of Visible Light 12h 01m
Length of Day
11h 10m
Waning Gibbous, 70% of the Moon is Illuminated
Feb 20
Waning Gibbous
Feb 22
Last Quarter
Mar 1
New
Mar 8
First Quarter
Mar 16
Full

Hourly Weather History & Observations

Time (MST) Temp. Windchill Dew Point Humidity Pressure Visibility Wind Dir Wind Speed Gust Speed Precip Events Conditions
12:30 AM 62.1 °F - 15.1 °F 16% 29.68 in 9.0 mi West 15.0 mph - N/A   Scattered Clouds
12:51 AM 61.0 °F - 15.1 °F 17% 29.53 in 9.0 mi WSW 17.3 mph - N/A   Clear
1:51 AM 55.0 °F - 14.0 °F 20% 29.58 in 10.0 mi WSW 11.5 mph - N/A   Clear
2:51 AM 54.0 °F - 12.0 °F 19% 29.61 in 10.0 mi West 8.1 mph - N/A   Clear
3:51 AM 54.0 °F - 16.0 °F 22% 29.66 in 10.0 mi North 10.4 mph - N/A   Clear
4:51 AM 52.0 °F - 19.0 °F 27% 29.70 in 10.0 mi NNW 8.1 mph - N/A   Clear
5:51 AM 48.0 °F - 18.0 °F 30% 29.75 in 10.0 mi North 6.9 mph - N/A   Clear
6:51 AM 46.0 °F 40.6 °F 19.0 °F 34% 29.83 in 10.0 mi NNE 11.5 mph - N/A   Clear
7:51 AM 52.0 °F - 19.0 °F 27% 29.86 in 10.0 mi North 16.1 mph - N/A   Clear
8:51 AM 54.0 °F - 14.0 °F 21% 29.91 in 8.0 mi NNW 26.5 mph 35.7 mph N/A   Clear
9:51 AM 55.9 °F - 10.0 °F 16% 29.91 in 10.0 mi NNW 25.3 mph 33.4 mph N/A   Clear
10:51 AM 57.9 °F - 6.1 °F 13% 29.92 in 10.0 mi NW 24.2 mph 36.8 mph N/A   Widespread Dust
11:51 AM 59.0 °F - -0.9 °F 9% 29.91 in 10.0 mi NNW 31.1 mph 40.3 mph N/A   Clear
12:51 PM 61.0 °F - -4.0 °F 7% 29.90 in 10.0 mi NW 29.9 mph 38.0 mph N/A   Clear
1:51 PM 61.0 °F - -7.1 °F 6% 29.91 in 10.0 mi NW 27.6 mph 38.0 mph N/A   Clear
2:51 PM 62.1 °F - -8.0 °F 6% 29.91 in 10.0 mi NW 19.6 mph 34.5 mph N/A   Clear
3:51 PM 62.1 °F - -9.9 °F 5% 29.91 in 10.0 mi NW 13.8 mph 24.2 mph N/A   Clear
4:51 PM 61.0 °F - -9.9 °F 5% 29.91 in 10.0 mi NNW 17.3 mph 23.0 mph N/A   Clear
5:51 PM 55.9 °F - -9.0 °F 7% 29.95 in 10.0 mi NW 6.9 mph - N/A   Clear
6:51 PM 53.1 °F - -13.0 °F 6% 29.98 in 10.0 mi North 6.9 mph - N/A   Clear
7:51 PM 48.0 °F - -11.0 °F 8% 29.99 in 10.0 mi NNW 13.8 mph - N/A   Clear
8:51 PM 45.0 °F 39.7 °F -9.9 °F 10% 30.01 in 10.0 mi North 10.4 mph - N/A   Clear
9:51 PM 36.0 °F - -9.0 °F 14% 30.06 in 10.0 mi Calm Calm - N/A   Clear
10:51 PM 30.9 °F 22.8 °F -9.9 °F 17% 30.06 in 10.0 mi WSW 9.2 mph - N/A   Clear
11:51 PM 34.0 °F - -11.0 °F 14% 30.04 in 10.0 mi Calm Calm - N/A   Clear